Temperature
19 19 18 18 18 18 18 18 18 18 17 17 17 17 17 17 17 17 16 16 16 16 16 16 16 16 16 16 16 16 16 16 16 15 15 15 15 15 15 14 14 14 14
19 18 18 18 18 18 18 18 17 17 17 17 17 17 17 17 17 16 16 16 16 16 16 16 16 16 16 16 16 16 16 15 15 15 15 14 14 14 14 14 13 13 13
18 18 18 18 18 18 18 18 17 17 17 17 17 17 17 16 16 16 16 16 16 16 16 15 16 15 15 15 15 15 15 15 15 15 14 14 14 14 13 13 13 13 12
18 18 18 18 18 18 18 17 17 17 17 17 16 16 16 16 16 16 16 16 15 15 15 15 15 15 15 15 15 15 15 15 14 14 14 13 13 13 13 12 12 12 12
18 18 18 18 18 17 17 17 17 17 17 16 16 16 16 16 16 16 15 15 15 15 15 15 15 15 14 14 14 14 14 14 14 14 13 13 13 12 12 12 12 11 11
18 18 18 17 17 17 17 17 16 16 16 16 16 16 16 15 15 15 15 15 15 15 15 15 14 14 14 14 14 14 14 14 13 13 13 13 12 12 12 12 11 11 10
18 18 17 17 17 17 17 16 16 16 16 16 15 15 15 15 15 15 14 14 14 14 14 14 14 14 14 14 13 13 13 13 13 13 12 12 12 12 12 11 11 11 11
18 18 17 17 17 17 16 16 16 16 15 15 15 15 15 15 14 14 14 14 14 14 14 13 13 13 13 13 13 13 13 12 12 12 12 12 12 11 11 11 11 11 10
18 17 17 17 17 16 16 16 15 15 15 15 15 15 14 14 14 14 14 14 14 13 13 13 13 13 13 12 12 12 12 12 12 12 11 11 11 11 11 11 10 10 9
17 17 17 16 16 16 16 15 15 15 15 15 14 14 14 14 14 14 13 13 13 13 13 13 12 12 12 12 12 12 12 11 11 11 11 11 11 11 10 10 10 10 9
17 17 16 16 16 16 15 15 15 14 14 14 14 14 13 13 13 13 13 13 13 13 13 12 12 12 12 12 11 11 11 11 11 11 11 10 10 10 10 10 10 9 9
16 16 16 16 16 15 15 15 14 14 14 14 14 13 13 13 13 13 13 12 12 12 12 12 12 12 11 11 11 11 11 11 10 10 10 10 10 9 9 9 9 9 9
16 16 15 15 15 15 14 14 14 13 13 13 13 13 13 13 12 12 12 12 12 12 12 11 11 11 11 11 11 10 10 10 10 10 10 9 9 9 9 8 8 8 8
15 15 15 15 14 14 14 14 13 13 13 13 12 12 12 12 12 12 12 11 11 11 11 11 11 10 10 10 10 10 10 10 10 9 9 9 8 8 8 8 8 8 7
15 15 15 14 14 14 13 13 13 13 12 12 12 12 12 12 12 11 11 11 11 11 11 10 10 10 10 10 9 9 9 9 9 9 9 8 8 8 8 8 7 7 7
15 15 14 14 14 13 13 13 12 12 12 12 12 12 11 11 11 11 11 11 10 10 10 10 10 10 9 9 9 9 9 9 8 8 8 8 8 8 7 7 7 7 7
15 14 14 14 13 13 12 12 12 12 11 11 11 11 11 11 11 10 10 10 10 10 9 9 9 9 9 9 9 9 8 8 8 8 8 8 7 7 7 7 6 6 6
14 14 13 13 13 12 12 12 11 11 11 11 10 10 10 10 10 10 9 9 9 9 9 9 9 9 9 8 8 8 8 8 7 7 7 7 7 7 6 6 6 6 6
14 13 13 13 12 12 12 11 11 11 11 10 10 10 10 9 9 9 9 9 9 9 9 8 8 8 8 8 8 8 7 7 7 7 7 7 6 6 6 6 6 6 5
13 12 12 12 12 11 11 11 11 10 10 10 10 9 9 9 9 9 9 9 8 8 8 8 8 8 8 8 7 7 7 7 7 7 6 6 6 6 6 6 6 5 5
12 12 12 11 11 11 11 11 10 10 10 10 9 9 9 9 8 8 8 8 8 8 8 8 8 8 7 7 7 7 7 7 6 6 6 6 6 6 6 5 5 5 5
11 11 11 11 11 11 11 10 10 10 10 9 9 9 8 8 8 8 8 8 8 8 8 7 7 7 7 7 7 6 6 6 6 6 6 6 6 6 5 5 5 5 5
11 11 11 11 11 11 10 10 10 10 9 9 9 9 8 8 8 8 8 8 7 7 7 7 7 7 7 7 6 6 6 6 6 6 6 6 5 5 5 5 5 5 5
10 10 10 10 10 10 10 10 10 9 9 9 9 8 8 8 8 8 7 7 7 7 7 7 7 7 7 6 6 6 6 6 6 6 6 5 5 5 5 5 5 5 5
10 10 10 10 10 10 10 10 9 9 9 9 9 8 8 8 8 8 7 7 7 7 7 7 7 7 6 6 6 6 6 6 6 5 5 5 5 5 5 5 5 5 5
10 10 10 10 10 10 10 9 9 9 9 9 9 8 8 8 8 7 7 7 7 7 7 7 7 7 6 6 6 6 6 6 5 5 5 5 5 5 5 5 5 5 5
Wind_Speed
8 6 5 4 4 4 4 4 3 3 3 3 3 3 3 2 2 2 2 2 3 3 3 3 4 3 2 2 2 2 2 3 4 3 1 1 2 3 5 7 8 8 9
7 6 5 4 4 4 3 3 3 3 3 3 2 2 2 2 2 2 2 2 2 2 3 3 3 3 3 2 2 3 3 3 4 4 2 2 2 3 5 5 7 8 8
7 6 5 4 4 4 3 3 3 3 3 3 3 2 2 2 2 2 2 1 1 2 2 2 3 2 2 2 2 2 2 2 3 4 3 2 1 3 4 5 6 6 7
7 6 5 5 4 4 3 3 3 3 3 3 3 2 2 2 2 1 1 1 1 0 0 0 1 1 2 2 2 2 2 2 3 3 3 2 2 2 4 4 4 3 3
7 6 5 5 4 4 4 3 3 3 4 3 3 2 1 1 1 2 2 2 2 1 1 1 1 2 2 1 1 2 2 2 3 3 3 2 2 3 4 3 5 4 2
7 6 5 5 5 4 4 3 3 3 3 3 3 3 2 1 2 3 3 2 2 2 1 1 2 2 3 3 3 3 3 4 4 3 3 4 4 4 4 5 5 4 2
7 7 6 6 6 4 4 4 3 3 3 3 3 3 2 1 2 3 3 3 2 2 2 1 1 2 2 2 3 4 4 4 5 5 4 4 4 5 7 6 5 5 3
7 6 6 6 5 5 4 4 3 3 4 3 3 3 2 1 3 4 4 3 2 2 2 1 2 1 2 2 3 4 3 3 3 3 3 3 4 5 7 7 7 5 3
7 6 6 6 6 5 5 4 4 4 3 3 2 2 2 1 2 4 4 3 2 2 1 2 2 2 3 4 4 4 3 3 5 6 6 6 7 7 9 6 6 5 3
7 7 6 7 7 6 5 4 3 3 3 3 3 2 2 1 2 4 4 3 2 2 2 2 4 3 3 4 4 4 3 1 2 4 5 5 5 6 7 6 7 6 4
6 7 6 6 6 6 4 4 4 4 4 3 2 2 2 2 2 3 4 3 3 2 1 1 1 3 3 4 4 3 3 3 3 3 3 3 3 3 3 4 4 5 4
7 7 6 6 6 6 5 4 4 4 4 3 2 2 3 2 2 3 4 4 3 3 2 1 0 2 3 3 3 3 4 5 4 3 3 2 2 2 2 4 5 5 4
7 7 6 5 5 5 5 5 4 3 3 2 2 2 1 2 2 3 4 4 4 2 1 2 2 2 2 2 2 4 4 3 4 3 2 1 1 1 3 4 5 7 7
7 7 6 6 5 5 4 4 4 3 3 2 2 2 1 0 1 2 1 2 2 2 1 2 4 4 3 3 3 2 2 2 3 3 2 1 1 2 3 3 3 3 4
7 6 6 6 6 5 4 3 3 2 2 3 3 3 3 2 2 2 2 1 2 2 2 2 1 1 1 1 1 1 1 2 2 2 3 2 2 2 2 2 3 3 3
6 5 5 5 5 5 5 4 6 4 2 2 3 3 2 1 2 2 2 2 2 4 3 2 1 1 2 2 2 1 1 1 1 2 3 3 3 3 2 2 3 3 3
6 5 4 4 5 4 4 4 3 3 6 6 4 4 4 3 2 2 1 2 3 6 3 2 2 2 2 2 2 2 1 1 1 2 3 3 3 3 3 3 3 3 2
6 6 5 5 5 4 4 3 3 3 2 2 3 3 3 3 3 2 2 4 2 2 1 1 2 2 2 2 2 2 2 2 2 2 2 3 3 3 3 3 2 3 2
5 5 5 5 4 4 4 3 3 3 3 2 1 1 1 1 2 2 3 2 2 1 1 1 1 2 2 2 3 3 3 2 2 2 2 3 3 4 3 3 3 3 3
4 7 6 5 5 4 4 4 3 3 3 2 2 1 1 1 1 1 1 1 1 1 1 1 1 2 2 3 3 3 3 2 2 2 2 2 3 3 4 3 3 3 2
4 5 7 5 4 4 4 4 4 3 3 3 2 2 3 2 1 1 1 1 1 1 1 1 1 2 2 2 3 3 3 3 2 2 2 2 3 3 3 3 3 2 2
4 4 4 4 4 4 4 4 4 4 4 4 2 2 3 2 1 1 1 1 1 2 2 2 2 2 3 4 4 4 4 3 3 3 3 3 2 2 2 2 2 2 2
4 4 4 3 4 5 4 3 4 4 4 4 3 3 2 2 2 2 2 2 1 2 3 4 3 3 4 5 7 6 5 4 4 5 4 4 3 3 2 2 3 2 3
4 5 4 4 4 3 3 3 4 4 4 4 3 3 3 3 3 3 2 2 2 3 4 5 5 5 6 6 7 7 7 7 7 7 7 5 4 3 3 3 3 4 4
4 4 4 4 4 3 3 3 3 3 3 3 4 3 3 3 3 3 2 2 3 3 4 5 6 6 8 8 8 8 8 7 8 7 7 5 4 4 3 3 3 3 3
3 4 4 3 3 3 3 3 3 3 3 3 3 4 4 4 3 3 3 2 2 3 3 4 6 7 8 8 9 9 8 8 8 8 7 6 4 4 3 3 3 3 4
Wind_Direction
171 169 169 177 178 173 177 190 188 178 176 173 182 188 192 193 187 186 207 208 216 236 240 233 242 238 234 236 230 221 213 193 211 237 218 158 146 143 127 133 138 138 142
163 161 166 168 165 165 173 182 177 168 167 165 156 156 167 168 170 176 205 218 218 232 242 240 251 243 235 238 231 227 219 197 189 207 212 166 138 145 132 128 126 127 129
156 157 160 163 162 167 169 168 157 150 145 137 138 145 153 148 147 164 179 193 205 228 243 238 248 229 241 245 223 223 224 198 171 178 201 192 130 135 121 115 110 106 118
152 154 159 164 162 158 153 145 142 143 144 141 137 144 140 132 138 150 161 167 155 148 265 203 222 200 214 216 220 219 198 171 159 164 176 166 134 129 131 128 117 102 110
147 151 158 152 146 141 134 130 127 126 126 128 121 109 103 122 135 131 131 133 125 97 54 57 75 90 103 144 170 189 181 175 170 171 170 143 143 146 160 146 140 123 91
142 145 147 134 130 130 129 123 117 117 115 110 112 105 84 77 91 112 118 113 115 120 109 63 57 49 58 70 85 109 143 158 165 162 170 170 176 172 157 155 146 143 160
147 146 142 138 135 133 129 121 121 120 112 111 111 102 89 54 88 104 106 117 116 114 115 105 84 61 56 55 65 71 81 115 141 156 166 185 181 183 168 163 164 157 162
144 144 144 140 138 135 130 125 119 111 114 114 108 109 104 86 103 100 94 99 94 90 94 111 113 58 62 82 81 70 60 58 113 135 159 170 171 170 172 169 162 141 101
144 145 147 145 141 137 132 123 118 113 110 116 111 105 104 75 97 112 104 102 90 67 58 71 100 88 78 91 95 90 70 43 71 94 106 109 120 137 146 138 137 138 138
149 149 148 145 144 142 136 129 122 120 119 110 95 90 97 86 111 122 111 114 108 87 60 60 77 97 105 112 117 119 115 98 85 73 71 75 86 108 137 157 164 160 146
141 138 136 136 137 133 127 127 125 119 111 102 92 60 54 62 105 120 121 121 140 130 110 58 45 91 102 117 126 140 162 140 109 98 86 69 62 73 97 119 144 155 149
126 126 128 132 135 131 127 124 123 125 121 110 91 61 28 22 67 104 120 129 142 144 157 181 91 87 101 118 126 130 124 117 107 99 95 92 94 97 98 99 109 113 126
124 124 123 117 112 119 124 126 120 118 124 124 112 107 45 17 31 79 117 130 139 136 150 141 108 85 77 86 110 115 116 114 119 122 132 139 133 124 99 83 77 81 76
127 128 129 122 112 102 101 114 121 128 136 141 138 142 142 62 26 29 59 102 118 121 122 93 73 74 77 72 73 88 106 133 141 145 150 134 103 99 101 101 97 87 74
127 127 125 119 121 109 92 81 116 140 170 172 179 174 171 201 247 238 190 170 175 173 132 86 62 73 78 50 45 57 79 98 114 116 121 116 111 110 103 99 105 104 104
133 134 133 129 125 124 119 88 47 46 47 118 145 152 163 192 193 194 187 170 170 156 130 142 166 172 173 171 159 122 89 118 131 128 133 140 142 139 124 104 108 120 125
145 147 143 139 138 139 140 138 120 45 46 59 81 114 120 128 138 154 153 143 151 147 136 165 180 185 178 166 164 153 153 147 132 133 138 142 141 136 130 127 124 119 118
144 146 144 146 147 150 154 153 150 145 124 43 36 74 117 131 134 130 123 105 96 105 146 175 187 183 174 169 165 156 146 134 128 131 134 135 136 136 136 139 144 146 140
142 145 146 145 147 148 148 150 151 149 149 140 92 34 57 114 106 96 106 106 145 178 207 199 192 184 175 170 165 161 155 151 146 139 137 141 143 139 144 154 157 149 138
143 146 146 149 148 145 146 151 156 158 159 160 164 165 133 97 75 70 81 97 142 188 218 215 202 189 178 170 165 159 155 153 152 147 152 152 149 148 152 151 150 149 157
144 147 144 145 149 153 154 159 161 157 155 158 175 176 159 148 157 170 168 173 182 191 192 196 194 187 174 158 154 156 159 163 165 162 156 156 155 157 158 150 148 151 157
141 139 143 145 145 145 149 157 159 161 166 163 161 157 163 140 148 174 197 204 203 210 195 183 187 194 183 172 167 166 169 174 179 172 167 167 167 164 156 154 158 167 185
129 128 128 130 131 134 134 141 150 160 170 174 171 165 169 184 202 205 210 210 216 212 206 189 182 191 192 187 186 178 178 191 197 188 178 179 177 171 169 181 193 204 221
135 140 140 138 134 138 142 149 159 168 177 182 180 181 185 192 204 210 210 216 216 214 205 195 192 191 189 188 192 193 196 201 199 193 184 177 180 184 185 197 214 224 229
133 140 143 147 150 153 154 158 163 164 173 183 186 189 194 194 200 207 208 209 208 219 218 209 204 200 196 192 190 192 195 196 195 193 189 179 184 193 199 211 222 230 227
137 143 150 154 157 160 161 163 167 167 174 184 188 192 194 194 198 204 209 215 218 223 222 214 207 199 199 201 203 203 204 204 204 206 202 191 187 201 203 216 230 235 240
Height
1537 1539 1540 1542 1543 1544 1545 1546 1547 1547 1548 1549 1549 1550 1550 1550 1551 1551 1551 1551 1551 1550 1550 1550 1550 1550 1550 1551 1551 1551 1551 1551 1551 1551 1552 1553 1553 1554 1554 1555 1556 1556 1557
1536 1538 1539 1540 1541 1542 1543 1544 1545 1545 1546 1546 1547 1547 1547 1547 1548 1548 1548 1548 1547 1547 1547 1547 1546 1546 1546 1546 1546 1546 1546 1546 1547 1546 1547 1548 1549 1550 1551 1551 1552 1553 1554
1535 1537 1538 1539 1540 1541 1541 1542 1543 1543 1544 1544 1544 1544 1545 1545 1545 1545 1545 1545 1544 1544 1543 1543 1543 1542 1542 1542 1542 1542 1542 1542 1543 1543 1543 1544 1545 1546 1547 1548 1549 1550 1551
1535 1536 1537 1538 1539 1540 1540 1541 1541 1541 1542 1542 1542 1542 1542 1543 1543 1542 1542 1542 1541 1541 1540 1540 1539 1539 1538 1538 1538 1538 1538 1538 1538 1538 1539 1540 1540 1542 1543 1544 1546 1547 1548
1534 1535 1536 1537 1538 1538 1539 1539 1539 1540 1540 1540 1541 1540 1540 1540 1540 1540 1540 1539 1539 1538 1538 1537 1537 1536 1536 1535 1535 1535 1535 1535 1535 1535 1535 1536 1537 1539 1540 1542 1543 1544 1546
1533 1533 1534 1536 1536 1537 1537 1538 1538 1538 1539 1539 1539 1539 1539 1538 1538 1538 1537 1537 1536 1536 1536 1535 1535 1534 1534 1534 1533 1533 1533 1532 1532 1532 1533 1534 1534 1536 1538 1539 1540 1542 1542
1531 1532 1532 1533 1535 1536 1536 1537 1537 1537 1537 1537 1537 1537 1537 1537 1537 1536 1536 1535 1535 1534 1534 1534 1534 1533 1533 1532 1531 1531 1530 1530 1531 1531 1531 1532 1532 1534 1535 1536 1538 1539 1540
1530 1531 1532 1533 1534 1535 1535 1535 1536 1536 1536 1536 1536 1536 1536 1535 1535 1535 1535 1534 1533 1533 1533 1533 1533 1532 1532 1531 1530 1529 1529 1529 1529 1529 1530 1531 1532 1532 1533 1534 1535 1537 1539
1528 1530 1531 1532 1533 1534 1534 1534 1535 1535 1535 1535 1535 1534 1534 1534 1534 1534 1534 1533 1532 1531 1531 1532 1532 1531 1531 1531 1530 1529 1528 1528 1529 1529 1529 1530 1530 1531 1532 1532 1533 1534 1535
1527 1528 1530 1531 1532 1533 1533 1534 1534 1535 1534 1534 1533 1533 1533 1533 1533 1533 1532 1532 1531 1531 1531 1531 1531 1530 1530 1530 1529 1529 1528 1528 1529 1529 1529 1529 1529 1529 1530 1531 1531 1532 1533
1526 1528 1529 1530 1531 1532 1533 1533 1534 1534 1533 1533 1532 1532 1532 1532 1532 1531 1531 1531 1530 1530 1530 1530 1530 1530 1530 1530 1529 1529 1528 1528 1528 1528 1528 1528 1528 1528 1528 1529 1530 1531 1532
1526 1527 1528 1529 1530 1531 1532 1532 1533 1532 1532 1532 1532 1531 1531 1531 1530 1530 1530 1529 1529 1529 1528 1529 1529 1529 1529 1529 1528 1528 1528 1528 1528 1528 1528 1527 1527 1527 1528 1529 1529 1530 1531
1524 1525 1527 1528 1529 1529 1530 1531 1531 1531 1531 1531 1530 1530 1530 1529 1529 1528 1528 1528 1528 1527 1527 1527 1527 1528 1528 1527 1527 1527 1527 1527 1527 1527 1527 1527 1528 1528 1528 1529 1529 1530 1531
1523 1524 1525 1526 1527 1528 1528 1529 1529 1529 1529 1529 1529 1528 1528 1528 1527 1527 1526 1526 1526 1526 1526 1526 1526 1526 1527 1527 1526 1526 1526 1526 1526 1527 1527 1527 1527 1528 1528 1529 1529 1529 1530
1521 1522 1524 1525 1525 1526 1527 1527 1528 1528 1528 1528 1527 1527 1526 1526 1526 1525 1525 1524 1524 1524 1524 1524 1524 1525 1525 1525 1525 1525 1525 1525 1526 1526 1526 1526 1527 1527 1528 1528 1529 1529 1530
1519 1521 1522 1522 1523 1524 1525 1525 1526 1526 1526 1526 1525 1525 1524 1524 1524 1523 1523 1523 1523 1523 1523 1522 1523 1523 1523 1524 1524 1524 1524 1524 1524 1525 1525 1525 1526 1526 1527 1528 1529 1530 1530
1518 1519 1520 1520 1521 1522 1523 1523 1523 1524 1524 1523 1523 1523 1523 1522 1522 1521 1521 1521 1521 1521 1521 1521 1521 1522 1522 1522 1522 1523 1523 1523 1523 1524 1524 1525 1525 1526 1527 1527 1528 1529 1530
1516 1517 1518 1519 1519 1520 1521 1521 1522 1522 1521 1521 1521 1521 1520 1520 1520 1520 1520 1520 1520 1520 1520 1520 1520 1520 1521 1521 1521 1521 1521 1522 1522 1523 1523 1524 1525 1525 1526 1527 1528 1529 1530
1514 1515 1516 1517 1518 1518 1519 1520 1520 1520 1520 1519 1519 1519 1519 1519 1518 1518 1518 1519 1518 1519 1519 1519 1519 1519 1519 1520 1520 1520 1520 1521 1521 1522 1523 1523 1524 1525 1526 1527 1528 1529 1530
1512 1513 1514 1515 1516 1516 1517 1517 1518 1518 1518 1518 1517 1517 1517 1517 1517 1517 1517 1517 1518 1518 1518 1518 1518 1518 1518 1518 1519 1519 1520 1520 1521 1521 1522 1523 1524 1524 1525 1527 1528 1529 1529
1511 1512 1513 1514 1514 1515 1515 1516 1516 1516 1516 1516 1516 1516 1516 1516 1516 1516 1516 1517 1517 1517 1517 1517 1517 1517 1517 1518 1518 1518 1519 1519 1520 1521 1521 1522 1523 1524 1525 1526 1527 1528 1529
1509 1510 1512 1513 1513 1514 1515 1515 1515 1515 1516 1516 1516 1516 1516 1516 1516 1516 1516 1517 1517 1517 1517 1517 1517 1517 1517 1517 1518 1518 1518 1519 1520 1520 1521 1522 1523 1524 1524 1525 1526 1527 1528
1508 1509 1511 1512 1513 1514 1514 1515 1515 1515 1515 1516 1516 1516 1516 1516 1516 1516 1517 1517 1517 1517 1517 1517 1517 1517 1517 1517 1518 1518 1518 1518 1519 1519 1520 1521 1522 1522 1523 1524 1525 1526 1526
1507 1509 1510 1511 1512 1513 1514 1514 1514 1515 1515 1515 1516 1516 1516 1516 1516 1517 1517 1517 1517 1517 1517 1517 1517 1516 1517 1517 1517 1517 1517 1517 1518 1518 1519 1520 1521 1521 1522 1523 1523 1524 1524
1508 1509 1510 1511 1512 1513 1513 1514 1514 1514 1515 1515 1515 1515 1516 1516 1516 1516 1516 1517 1517 1517 1517 1517 1516 1516 1516 1516 1516 1516 1516 1517 1517 1517 1518 1518 1519 1519 1520 1521 1521 1521 1522
1508 1509 1510 1511 1511 1512 1513 1513 1513 1514 1514 1515 1515 1515 1515 1515 1515 1516 1516 1516 1516 1516 1516 1516 1516 1515 1515 1515 1515 1515 1515 1515 1515 1516 1516 1516 1517 1517 1518 1518 1518 1519 1519